FENGYUN 1C DEB

Satellite information

Favourite Embed

Satellite Type and Status

DEBRISIN ORBIT

Key statistics

Satellite FENGYUN 1C DEB at a glance.

Uptime

9556

Days in orbit

Revolutions

≈ 14.5

Per day

Orbit

SSO

Sun Synchronous Orbit

Inclination

98.8

Latest

Satellite identification and parameters

Extended collection of information and parameters for FENGYUN 1C DEB.

Object identification

Identified? True

Debris? True

Object name: FENGYUN 1C DEB

International designator: 1999-025BRX

Object number (NORAD): 31367

Object ID (CCSDS): 31367

Country: PEOPLES REPUBLIC OF CHINA (PRC)

Current information (Y/N): Y

RCS size: SMALL

Orbital parameters

Period: 99.537 minutes

Inclination: 98.7623 deg

SMA: 7114.594 km

Apoapsis: 808.094 km

Periapsis: 664.823 km

RAAN: 77.9054 deg

Eccentricy: 0.0100688

Argument of periapsis: 129.8012 deg

Mean anomaly: 300.4489 deg

Mean motion: 14.4669713 rev/day

Mean motion (dot): 0.00001143 rev/day2

B* drag term: 0.00031008 1/REarth

Two-line elements (TLE)

Creation date: July 8, 2025, 2:27 a.m.

Reference frame: TEME

Reference center: EARTH

Epoch: July 7, 2025, 10:49 p.m. UTC

TLE line 0: 0 FENGYUN 1C DEB

TLE line 1: 1 31367U 99025BRX 25188.95080189 .00001143 00000-0 31008-3 0 9993

TLE line 2: 2 31367 98.7623 77.9054 0100688 129.8012 300.4489 14.46697130961842

Live tracking on map

Real-time ground track for satellite FENGYUN 1C DEB.

In-orbit conjunctions

A list of the most updated potential collisions computed for object FENGYUN 1C DEB.

Target Orbit TCA Probability of collision Miss distance Type
FENGYUN 1C DEB SSO 2025-07-09 19:19:32 0.0001284082 80.0 (m) DEBRIS
CZ-6A DEB LEO 2024-11-14 07:20:51 0.0001110821 905.0 (m) DEBRIS
CZ-2D R/B SSO 2024-07-12 03:40:19 0.0001484002 746.0 (m) ROCKET BODY

Associated space launch

Chinese polar orbiting meteorological satellite

FENGYUN 1C DEB was lifted into orbit during the mission ‘Long March 4B | Feng Yun 1C’, on board a Long March 4B space rocket.

The launch took place on May 10, 1999, 1:33 a.m. from Launch Complex 7.

For more information about the launch, click the button.

Launch to space Long March 4B | Feng Yun 1C
Long March 4B | Feng Yun 1C

Agency: N/A

Status: Launch Successful

Launch date: May 10, 1999, 1:33 a.m. UTC

Rocket: Long March 4B

Launch pad: Launch Complex 7

Location: Taiyuan Satellite Launch Center, People's Republic of China

...

Latest news about this satellite

There are no fresh news available about this satellite. Check back as we update our databases every day.


Newsletter sign-up

Weekly statistics, charts and insights to help you stay on top of the space industry.